Dayton, OH

6:55 AM EST on November 12, 2019 (GMT -0500)
Cox-Dayton International

Weather History for KDAY - October, 2019

Change the Weather History Date:

Monday, October 21, 2019

  Actual Average Record
Temperature  
Mean Temperature 64 °F 52 °F  
Max Temperature 72 °F 62 °F 85 °F (1953)
Min Temperature 55 °F 43 °F 23 °F (1952)
Degree Days  
Heating Degree Days 2 13  
Month to date heating degree days 134 211  
Since 1 July heating degree days 134 301  
Cooling Degree Days 0 0  
Month to date cooling degree days 48 10  
Year to date cooling degree days 1358 891  
Growing Degree Days 14 (Base 50)    
Moisture  
Dew Point 57 °F    
Average Humidity 86    
Maximum Humidity 100    
Minimum Humidity 68    
Precipitation  
Precipitation 0.10 in 0.08 in 1.99 in (1929)
Month to date precipitation 1.22 2.00  
Year to date precipitation 35.96 33.61  
Snow  
Snow 0.00 in 0.00 in - ()
Month to date snowfall 0.0 0.1  
Since 1 July snowfall T 0.1  
Since 1 September snowfall 0.0 0.1  
Snow Depth 0.00 in    
Sea Level Pressure  
Sea Level Pressure 29.83 in    
Wind  
Wind Speed 10 mph ()    
Max Wind Speed 32 mph    
Max Gust Speed 46 mph    
Visibility 6.8 miles    
Events Fog , Rain , Thunderstorm    
T = Trace of Precipitation, MM = Missing Value Source: Averaged Metar Reports

Daily Weather History Graph

Daily Weather History Graph

Search for Another Location

Airport or City:

Astronomy

Oct. 21, 2019 Rise Set
Actual Time 7:53 AM EDT 6:49 PM EDT
Civil Twilight 7:25 AM EDT 7:16 PM EDT
Nautical Twilight 6:54 AM EDT 7:47 PM EDT
Astronomical Twilight 6:23 AM EDT 8:19 PM EDT
Moon No Moon Rise 3:10 PM EDT (10/21)
Length of Visible Light 11h 50m
Length of Day
10h 55m
Waning Gibbous, 48% of the Moon is Illuminated
Oct 21
Waning Gibbous
Oct 27
New
Nov 4
First Quarter
Nov 12
Full
Nov 19
Last Quarter

Hourly Weather History & Observations

Time (EDT) Temp. Dew Point Humidity Pressure Visibility Wind Dir Wind Speed Gust Speed Precip Events Conditions
12:56 AM 60.1 °F 55.9 °F 86% 29.94 in 10.0 mi South 5.8 mph - N/A   Partly Cloudy
1:56 AM 59.0 °F 55.9 °F 90% 29.93 in 10.0 mi South 8.1 mph - N/A   Partly Cloudy
2:56 AM 57.0 °F 55.0 °F 93% 29.93 in 7.0 mi SSE 6.9 mph - N/A   Partly Cloudy
3:56 AM 55.0 °F 53.1 °F 93% 29.91 in 6.0 mi SE 6.9 mph - N/A   Scattered Clouds
4:56 AM 55.9 °F 54.0 °F 93% 29.90 in 6.0 mi SE 6.9 mph - N/A   Scattered Clouds
5:33 AM 55.9 °F 55.0 °F 97% 29.91 in 0.2 mi SE 8.1 mph - N/A   Scattered Clouds
5:56 AM 57.0 °F 55.0 °F 93% 29.91 in 0.2 mi SE 9.2 mph - N/A   Scattered Clouds
6:03 AM 57.0 °F 55.0 °F 93% 29.92 in 0.2 mi SE 9.2 mph - N/A   Mostly Cloudy
6:56 AM 55.9 °F 55.0 °F 97% 29.90 in 0.2 mi SE 13.8 mph - N/A   Overcast
7:56 AM 57.0 °F 55.0 °F 93% 29.89 in 0.2 mi SE 13.8 mph - N/A Fog Fog
8:10 AM 57.0 °F 55.9 °F 96% 29.89 in 0.2 mi SE 12.7 mph - N/A Fog Fog
8:27 AM 57.0 °F 55.9 °F 96% 29.88 in 0.2 mi SE 16.1 mph - N/A Fog Fog
8:37 AM 57.9 °F 55.9 °F 93% 29.89 in 1.5 mi SSE 17.3 mph 26.5 mph N/A   Overcast
8:53 AM 57.2 °F 55.4 °F 94% 29.89 in 7.0 mi SE 13.8 mph - N/A   Overcast
8:56 AM 57.9 °F 55.9 °F 93% 29.88 in 7.0 mi SE 12.7 mph - N/A   Overcast
9:05 AM 57.9 °F 57.0 °F 97% 29.89 in 7.0 mi SE 16.1 mph - N/A   Overcast
9:56 AM 61.0 °F 57.0 °F 87% 29.83 in 7.0 mi ESE 16.1 mph 24.2 mph N/A   Mostly Cloudy
10:17 AM 62.1 °F 57.0 °F 84% 29.84 in 10.0 mi SE 13.8 mph - N/A   Mostly Cloudy
10:56 AM 63.0 °F 55.0 °F 75% 29.82 in 10.0 mi SE 20.7 mph 27.6 mph N/A   Mostly Cloudy
11:56 AM 66.0 °F 55.0 °F 68% 29.78 in 10.0 mi SE 20.7 mph 29.9 mph N/A   Mostly Cloudy
12:36 PM 64.9 °F 55.0 °F 70% 29.81 in 10.0 mi South 13.8 mph 23.0 mph 0.00 in Rain , Thunderstorm Thunderstorms and Rain
12:56 PM 64.9 °F 57.0 °F 75% 29.78 in 7.0 mi SE 9.2 mph - 0.00 in Rain , Thunderstorm Light Rain
1:32 PM 62.1 °F 59.0 °F 90% 29.81 in 7.0 mi Calm Calm - 0.04 in Rain Light Rain
1:56 PM 63.0 °F 59.0 °F 87% 29.77 in 7.0 mi SSE 5.8 mph - 0.06 in   Overcast
2:56 PM 64.0 °F 60.1 °F 87% 29.71 in 10.0 mi SSE 10.4 mph - N/A   Overcast
3:56 PM 69.1 °F 60.1 °F 73% 29.72 in 10.0 mi South 12.7 mph - N/A   Mostly Cloudy
4:56 PM 71.1 °F 60.1 °F 68% 29.71 in 10.0 mi South 15.0 mph 21.9 mph N/A   Overcast
5:56 PM 68.0 °F 59.0 °F 73% 29.73 in 10.0 mi SSW 12.7 mph - 0.00 in Rain Light Rain
6:56 PM 66.9 °F 57.9 °F 73% 29.70 in 10.0 mi South 16.1 mph 23.0 mph 0.01 in Rain Light Rain
7:56 PM 64.9 °F 57.9 °F 78% 29.73 in 10.0 mi South 17.3 mph 24.2 mph 0.00 in Rain Light Rain
8:56 PM 63.0 °F 57.9 °F 84% 29.74 in 10.0 mi South 18.4 mph 24.2 mph 0.03 in   Overcast
9:56 PM 62.1 °F 57.9 °F 86% 29.74 in 10.0 mi South 15.0 mph 21.9 mph N/A   Overcast
10:56 PM 62.1 °F 57.0 °F 84% 29.74 in 10.0 mi South 16.1 mph - N/A   Overcast
11:56 PM 62.1 °F 57.0 °F 84% 29.74 in 10.0 mi South 19.6 mph 25.3 mph N/A   Overcast